QPF
0.05 0.07 0.07 0.07 0.06 0.05 0.05 0.05 0.05 0.04 0.04 0.04 0.02 0.01 0.01 0.01 0.00 0.00 0.00 0.00 0.00 0.00 0.01 0.01 0.01 0.01 0.02 0.02 0.03 0.03 0.02 0.02 0.02 0.02 0.02 0.02 0.01 0.01 0.01 0.01 0.01 0.01 0.02
0.06 0.06 0.09 0.10 0.08 0.08 0.08 0.07 0.06 0.05 0.05 0.05 0.03 0.02 0.01 0.01 0.00 0.00 0.00 0.00 0.00 0.00 0.00 0.01 0.01 0.02 0.01 0.02 0.02 0.03 0.03 0.03 0.03 0.03 0.02 0.02 0.02 0.01 0.01 0.02 0.02 0.02 0.02
0.12 0.11 0.10 0.13 0.12 0.10 0.09 0.08 0.07 0.06 0.05 0.04 0.03 0.03 0.02 0.02 0.01 0.01 0.00 0.00 0.00 0.00 0.00 0.01 0.01 0.02 0.02 0.01 0.01 0.02 0.02 0.02 0.02 0.02 0.02 0.02 0.02 0.02 0.02 0.02 0.02 0.02 0.02
0.12 0.14 0.14 0.15 0.16 0.14 0.13 0.10 0.08 0.06 0.05 0.03 0.03 0.03 0.03 0.03 0.03 0.02 0.01 0.01 0.00 0.00 0.00 0.00 0.01 0.01 0.01 0.01 0.01 0.01 0.01 0.01 0.01 0.01 0.01 0.02 0.02 0.02 0.02 0.02 0.01 0.02 0.02
0.11 0.13 0.15 0.16 0.18 0.15 0.12 0.10 0.09 0.08 0.06 0.05 0.04 0.03 0.03 0.03 0.03 0.03 0.02 0.02 0.01 0.00 0.00 0.00 0.00 0.00 0.01 0.01 0.01 0.01 0.02 0.02 0.01 0.01 0.01 0.01 0.01 0.01 0.02 0.01 0.01 0.02 0.02
0.07 0.10 0.12 0.14 0.15 0.14 0.11 0.08 0.06 0.06 0.06 0.07 0.07 0.05 0.04 0.03 0.02 0.02 0.02 0.02 0.02 0.01 0.01 0.00 0.00 0.00 0.01 0.01 0.01 0.01 0.02 0.02 0.02 0.01 0.01 0.01 0.01 0.01 0.01 0.02 0.02 0.02 0.02
0.04 0.06 0.09 0.10 0.11 0.11 0.09 0.07 0.06 0.06 0.06 0.07 0.07 0.06 0.05 0.05 0.04 0.03 0.02 0.02 0.02 0.02 0.02 0.01 0.01 0.01 0.01 0.01 0.01 0.01 0.02 0.02 0.02 0.01 0.01 0.01 0.01 0.02 0.02 0.02 0.02 0.02 0.03
0.02 0.03 0.06 0.09 0.09 0.09 0.08 0.07 0.07 0.07 0.08 0.08 0.09 0.09 0.08 0.06 0.05 0.03 0.03 0.02 0.03 0.03 0.03 0.02 0.02 0.01 0.01 0.01 0.01 0.01 0.01 0.01 0.01 0.01 0.02 0.02 0.02 0.02 0.02 0.02 0.02 0.03 0.03
0.02 0.03 0.04 0.08 0.10 0.10 0.11 0.10 0.09 0.10 0.10 0.11 0.11 0.11 0.09 0.08 0.06 0.05 0.05 0.04 0.03 0.03 0.03 0.03 0.03 0.02 0.02 0.01 0.01 0.01 0.01 0.01 0.01 0.01 0.02 0.02 0.02 0.02 0.02 0.02 0.02 0.03 0.03
0.02 0.03 0.04 0.07 0.10 0.11 0.11 0.12 0.12 0.11 0.11 0.11 0.11 0.11 0.10 0.07 0.06 0.06 0.04 0.03 0.03 0.02 0.02 0.02 0.02 0.02 0.02 0.02 0.01 0.01 0.01 0.01 0.01 0.01 0.02 0.03 0.03 0.03 0.03 0.03 0.03 0.03 0.04
0.03 0.04 0.04 0.05 0.07 0.09 0.10 0.10 0.11 0.12 0.12 0.11 0.10 0.10 0.09 0.07 0.05 0.05 0.04 0.03 0.03 0.03 0.02 0.02 0.02 0.02 0.02 0.02 0.01 0.01 0.01 0.01 0.02 0.01 0.02 0.03 0.04 0.05 0.05 0.05 0.05 0.05 0.05
0.03 0.04 0.06 0.06 0.06 0.06 0.07 0.08 0.08 0.09 0.09 0.09 0.09 0.09 0.09 0.08 0.07 0.06 0.05 0.04 0.04 0.03 0.03 0.02 0.02 0.01 0.01 0.01 0.01 0.01 0.02 0.02 0.02 0.02 0.02 0.03 0.04 0.04 0.05 0.05 0.05 0.05 0.05
0.04 0.03 0.05 0.06 0.06 0.06 0.06 0.07 0.07 0.07 0.06 0.06 0.06 0.05 0.05 0.05 0.05 0.05 0.05 0.04 0.04 0.03 0.03 0.02 0.01 0.01 0.01 0.02 0.02 0.02 0.02 0.02 0.02 0.02 0.02 0.03 0.03 0.03 0.03 0.04 0.04 0.04 0.05
0.04 0.03 0.03 0.04 0.06 0.07 0.07 0.06 0.06 0.05 0.05 0.05 0.05 0.05 0.05 0.04 0.04 0.04 0.04 0.05 0.05 0.04 0.03 0.02 0.02 0.01 0.02 0.02 0.02 0.02 0.02 0.02 0.02 0.02 0.02 0.02 0.02 0.02 0.02 0.03 0.03 0.04 0.04
0.04 0.03 0.04 0.04 0.06 0.08 0.08 0.08 0.07 0.06 0.05 0.05 0.05 0.05 0.05 0.04 0.04 0.04 0.04 0.04 0.05 0.04 0.03 0.02 0.02 0.02 0.02 0.02 0.02 0.03 0.02 0.02 0.02 0.02 0.02 0.02 0.02 0.02 0.02 0.02 0.03 0.03 0.03
0.03 0.04 0.05 0.05 0.05 0.06 0.08 0.08 0.08 0.08 0.07 0.05 0.05 0.04 0.04 0.04 0.04 0.04 0.04 0.04 0.04 0.04 0.03 0.02 0.02 0.01 0.02 0.02 0.02 0.02 0.02 0.02 0.02 0.01 0.01 0.02 0.02 0.02 0.02 0.02 0.03 0.03 0.03
0.04 0.05 0.05 0.05 0.06 0.06 0.06 0.07 0.06 0.06 0.06 0.05 0.04 0.04 0.04 0.04 0.04 0.04 0.04 0.04 0.04 0.04 0.03 0.02 0.02 0.01 0.01 0.01 0.02 0.02 0.02 0.02 0.02 0.02 0.02 0.02 0.02 0.02 0.02 0.02 0.03 0.03 0.03
0.03 0.04 0.04 0.04 0.04 0.04 0.03 0.03 0.04 0.05 0.05 0.04 0.04 0.03 0.03 0.02 0.02 0.03 0.03 0.04 0.04 0.05 0.05 0.03 0.02 0.02 0.02 0.02 0.02 0.02 0.02 0.02 0.02 0.02 0.02 0.02 0.02 0.02 0.02 0.02 0.02 0.03 0.04
0.01 0.02 0.01 0.01 0.01 0.01 0.01 0.02 0.02 0.03 0.03 0.03 0.03 0.02 0.02 0.02 0.02 0.02 0.02 0.03 0.03 0.04 0.04 0.03 0.02 0.02 0.02 0.02 0.02 0.03 0.02 0.02 0.02 0.02 0.02 0.01 0.01 0.02 0.02 0.02 0.02 0.02 0.03
0.01 0.01 0.01 0.01 0.01 0.01 0.01 0.01 0.01 0.02 0.03 0.03 0.03 0.02 0.02 0.01 0.02 0.02 0.03 0.03 0.03 0.04 0.04 0.04 0.04 0.03 0.02 0.02 0.02 0.02 0.02 0.02 0.02 0.02 0.02 0.02 0.02 0.02 0.03 0.03 0.03 0.03 0.03
0.01 0.01 0.01 0.01 0.02 0.02 0.02 0.02 0.02 0.02 0.02 0.02 0.02 0.02 0.02 0.02 0.02 0.02 0.02 0.02 0.03 0.03 0.04 0.04 0.05 0.04 0.04 0.04 0.03 0.02 0.02 0.02 0.03 0.03 0.03 0.03 0.03 0.03 0.03 0.04 0.04 0.04 0.04
0.01 0.01 0.01 0.02 0.02 0.02 0.02 0.03 0.02 0.02 0.02 0.02 0.02 0.02 0.02 0.03 0.03 0.04 0.03 0.03 0.03 0.03 0.04 0.04 0.04 0.05 0.04 0.03 0.03 0.03 0.03 0.03 0.03 0.02 0.02 0.02 0.03 0.03 0.03 0.03 0.04 0.04 0.04
0.02 0.02 0.02 0.01 0.02 0.02 0.02 0.02 0.02 0.02 0.02 0.02 0.02 0.02 0.02 0.02 0.02 0.03 0.03 0.03 0.03 0.03 0.04 0.04 0.04 0.04 0.04 0.04 0.04 0.04 0.04 0.04 0.03 0.03 0.03 0.03 0.02 0.02 0.02 0.02 0.03 0.04 0.04
0.01 0.01 0.01 0.01 0.01 0.01 0.01 0.01 0.02 0.02 0.02 0.02 0.01 0.01 0.01 0.01 0.01 0.01 0.02 0.02 0.02 0.02 0.03 0.04 0.04 0.03 0.03 0.04 0.05 0.05 0.05 0.05 0.05 0.04 0.04 0.04 0.03 0.02 0.02 0.02 0.03 0.03 0.04
0.01 0.01 0.01 0.01 0.01 0.01 0.01 0.01 0.01 0.01 0.01 0.01 0.01 0.01 0.01 0.01 0.01 0.01 0.01 0.01 0.02 0.02 0.02 0.02 0.03 0.03 0.04 0.05 0.05 0.06 0.06 0.06 0.06 0.04 0.04 0.04 0.03 0.02 0.02 0.02 0.02 0.03 0.03
0.01 0.01 0.01 0.01 0.01 0.01 0.01 0.01 0.01 0.01 0.01 0.01 0.01 0.00 0.01 0.01 0.01 0.01 0.01 0.01 0.01 0.01 0.02 0.02 0.02 0.02 0.02 0.03 0.04 0.05 0.06 0.07 0.07 0.07 0.05 0.05 0.04 0.04 0.03 0.02 0.02 0.03 0.04
MSLP
1016.73 1016.59 1016.39 1016.17 1015.99 1015.87 1015.85 1015.92 1016.08 1016.28 1016.50 1016.70 1016.85 1016.95 1017.00 1017.03 1017.05 1017.07 1017.10 1017.14 1017.17 1017.19 1017.19 1017.16 1017.12 1017.07 1017.04 1017.03 1017.04 1017.07 1017.13 1017.19 1017.26 1017.33 1017.40 1017.47 1017.55 1017.62 1017.69 1017.76 1017.81 1017.84 1017.84
1016.50 1016.29 1016.04 1015.78 1015.57 1015.44 1015.41 1015.49 1015.65 1015.86 1016.09 1016.29 1016.44 1016.53 1016.57 1016.58 1016.58 1016.57 1016.58 1016.60 1016.63 1016.65 1016.66 1016.65 1016.63 1016.59 1016.55 1016.51 1016.49 1016.49 1016.52 1016.56 1016.62 1016.69 1016.78 1016.88 1016.99 1017.09 1017.19 1017.27 1017.33 1017.37 1017.39
1016.21 1015.94 1015.65 1015.38 1015.16 1015.04 1015.02 1015.10 1015.26 1015.47 1015.69 1015.89 1016.03 1016.11 1016.14 1016.12 1016.09 1016.06 1016.04 1016.04 1016.05 1016.07 1016.09 1016.09 1016.08 1016.06 1016.02 1015.97 1015.93 1015.90 1015.89 1015.90 1015.94 1016.01 1016.10 1016.21 1016.34 1016.46 1016.57 1016.67 1016.74 1016.79 1016.83
1015.86 1015.55 1015.25 1014.99 1014.79 1014.68 1014.67 1014.76 1014.92 1015.12 1015.33 1015.51 1015.63 1015.70 1015.71 1015.67 1015.61 1015.55 1015.50 1015.47 1015.47 1015.48 1015.50 1015.51 1015.51 1015.50 1015.46 1015.41 1015.35 1015.30 1015.25 1015.24 1015.25 1015.30 1015.38 1015.48 1015.61 1015.74 1015.86 1015.96 1016.04 1016.09 1016.14
1015.46 1015.14 1014.85 1014.61 1014.45 1014.37 1014.38 1014.46 1014.61 1014.79 1014.97 1015.13 1015.24 1015.29 1015.29 1015.24 1015.17 1015.09 1015.01 1014.96 1014.93 1014.92 1014.92 1014.93 1014.94 1014.93 1014.90 1014.84 1014.77 1014.70 1014.63 1014.57 1014.55 1014.57 1014.62 1014.71 1014.82 1014.94 1015.06 1015.16 1015.23 1015.29 1015.34
1015.03 1014.72 1014.46 1014.26 1014.13 1014.08 1014.09 1014.17 1014.29 1014.44 1014.58 1014.72 1014.81 1014.87 1014.87 1014.84 1014.77 1014.68 1014.59 1014.51 1014.45 1014.41 1014.39 1014.38 1014.38 1014.37 1014.33 1014.28 1014.20 1014.11 1014.01 1013.93 1013.87 1013.85 1013.88 1013.93 1014.02 1014.12 1014.22 1014.30 1014.37 1014.42 1014.47
1014.57 1014.28 1014.06 1013.91 1013.81 1013.77 1013.78 1013.83 1013.91 1014.01 1014.13 1014.24 1014.33 1014.40 1014.44 1014.43 1014.39 1014.32 1014.22 1014.13 1014.04 1013.96 1013.91 1013.87 1013.85 1013.82 1013.79 1013.73 1013.64 1013.54 1013.42 1013.32 1013.23 1013.17 1013.16 1013.18 1013.24 1013.31 1013.38 1013.45 1013.50 1013.54 1013.57
1014.11 1013.85 1013.67 1013.55 1013.47 1013.43 1013.41 1013.42 1013.44 1013.49 1013.57 1013.66 1013.77 1013.87 1013.96 1014.01 1014.01 1013.97 1013.89 1013.78 1013.67 1013.56 1013.47 1013.40 1013.35 1013.31 1013.27 1013.21 1013.12 1013.01 1012.89 1012.76 1012.65 1012.56 1012.51 1012.50 1012.53 1012.57 1012.62 1012.66 1012.69 1012.71 1012.71
1013.69 1013.45 1013.29 1013.19 1013.11 1013.04 1012.98 1012.92 1012.88 1012.87 1012.91 1012.99 1013.12 1013.26 1013.41 1013.53 1013.60 1013.60 1013.55 1013.45 1013.32 1013.18 1013.06 1012.96 1012.89 1012.84 1012.80 1012.74 1012.66 1012.55 1012.43 1012.29 1012.16 1012.06 1011.98 1011.95 1011.94 1011.96 1011.99 1012.01 1012.01 1012.00 1011.97
1013.33 1013.12 1012.97 1012.86 1012.75 1012.64 1012.50 1012.36 1012.25 1012.17 1012.17 1012.25 1012.40 1012.59 1012.80 1012.99 1013.13 1013.19 1013.18 1013.09 1012.97 1012.82 1012.69 1012.57 1012.50 1012.45 1012.41 1012.37 1012.30 1012.21 1012.09 1011.95 1011.82 1011.70 1011.61 1011.55 1011.53 1011.52 1011.53 1011.52 1011.50 1011.46 1011.41
1013.10 1012.89 1012.73 1012.60 1012.44 1012.26 1012.04 1011.82 1011.62 1011.49 1011.44 1011.51 1011.67 1011.90 1012.17 1012.43 1012.63 1012.75 1012.78 1012.72 1012.61 1012.48 1012.35 1012.25 1012.19 1012.16 1012.15 1012.13 1012.09 1012.01 1011.91 1011.77 1011.63 1011.50 1011.40 1011.33 1011.29 1011.27 1011.26 1011.24 1011.20 1011.13 1011.05
1013.03 1012.81 1012.63 1012.45 1012.23 1011.97 1011.68 1011.37 1011.09 1010.89 1010.81 1010.85 1011.02 1011.28 1011.59 1011.89 1012.14 1012.30 1012.38 1012.36 1012.29 1012.20 1012.10 1012.04 1012.02 1012.03 1012.05 1012.07 1012.05 1012.00 1011.90 1011.77 1011.62 1011.48 1011.36 1011.28 1011.22 1011.19 1011.17 1011.13 1011.08 1010.99 1010.87
1013.13 1012.89 1012.68 1012.45 1012.17 1011.84 1011.47 1011.09 1010.74 1010.49 1010.37 1010.39 1010.55 1010.81 1011.13 1011.46 1011.74 1011.94 1012.05 1012.08 1012.06 1012.02 1011.99 1011.99 1012.03 1012.09 1012.16 1012.21 1012.22 1012.17 1012.07 1011.92 1011.76 1011.60 1011.46 1011.36 1011.29 1011.25 1011.21 1011.17 1011.09 1010.99 1010.84
1013.39 1013.14 1012.90 1012.62 1012.29 1011.90 1011.47 1011.04 1010.65 1010.36 1010.21 1010.21 1010.34 1010.59 1010.90 1011.22 1011.51 1011.73 1011.87 1011.95 1011.99 1012.02 1012.06 1012.14 1012.25 1012.37 1012.48 1012.56 1012.57 1012.51 1012.38 1012.20 1012.00 1011.81 1011.65 1011.52 1011.44 1011.38 1011.33 1011.27 1011.18 1011.05 1010.88
1013.79 1013.53 1013.26 1012.95 1012.59 1012.17 1011.71 1011.25 1010.85 1010.54 1010.37 1010.35 1010.46 1010.68 1010.96 1011.26 1011.53 1011.75 1011.91 1012.03 1012.13 1012.23 1012.35 1012.50 1012.68 1012.85 1012.98 1013.06 1013.05 1012.96 1012.78 1012.55 1012.30 1012.06 1011.86 1011.70 1011.59 1011.51 1011.45 1011.37 1011.26 1011.10 1010.91
1014.28 1014.01 1013.73 1013.40 1013.03 1012.61 1012.15 1011.71 1011.32 1011.03 1010.86 1010.83 1010.92 1011.10 1011.34 1011.60 1011.84 1012.04 1012.21 1012.35 1012.49 1012.65 1012.84 1013.05 1013.27 1013.47 1013.61 1013.66 1013.61 1013.45 1013.20 1012.90 1012.58 1012.28 1012.03 1011.83 1011.69 1011.59 1011.50 1011.39 1011.25 1011.07 1010.84
1014.80 1014.53 1014.25 1013.94 1013.58 1013.18 1012.77 1012.37 1012.03 1011.77 1011.62 1011.60 1011.67 1011.82 1012.01 1012.21 1012.41 1012.58 1012.74 1012.89 1013.06 1013.26 1013.48 1013.73 1013.96 1014.14 1014.25 1014.25 1014.12 1013.88 1013.55 1013.17 1012.77 1012.41 1012.10 1011.87 1011.69 1011.56 1011.44 1011.30 1011.12 1010.89 1010.62
1015.31 1015.05 1014.79 1014.49 1014.17 1013.82 1013.47 1013.14 1012.86 1012.66 1012.55 1012.54 1012.60 1012.72 1012.87 1013.02 1013.16 1013.29 1013.42 1013.56 1013.73 1013.94 1014.17 1014.41 1014.62 1014.77 1014.81 1014.73 1014.52 1014.19 1013.77 1013.30 1012.84 1012.42 1012.07 1011.80 1011.59 1011.42 1011.26 1011.07 1010.85 1010.56 1010.23
1015.77 1015.53 1015.29 1015.03 1014.76 1014.47 1014.19 1013.94 1013.73 1013.60 1013.53 1013.54 1013.60 1013.69 1013.79 1013.89 1013.97 1014.06 1014.14 1014.25 1014.40 1014.58 1014.78 1014.98 1015.14 1015.22 1015.19 1015.03 1014.72 1014.31 1013.81 1013.28 1012.77 1012.31 1011.93 1011.63 1011.39 1011.19 1010.98 1010.74 1010.45 1010.09 1009.69
1016.17 1015.97 1015.76 1015.54 1015.31 1015.08 1014.87 1014.69 1014.55 1014.47 1014.45 1014.47 1014.53 1014.59 1014.65 1014.70 1014.73 1014.75 1014.79 1014.85 1014.94 1015.07 1015.22 1015.36 1015.45 1015.45 1015.33 1015.09 1014.71 1014.23 1013.68 1013.11 1012.58 1012.11 1011.71 1011.40 1011.13 1010.89 1010.64 1010.33 1009.96 1009.53 1009.05
1016.52 1016.35 1016.17 1015.99 1015.81 1015.63 1015.47 1015.35 1015.26 1015.22 1015.22 1015.25 1015.29 1015.33 1015.35 1015.34 1015.31 1015.27 1015.25 1015.25 1015.28 1015.34 1015.41 1015.48 1015.49 1015.41 1015.22 1014.91 1014.49 1013.97 1013.41 1012.84 1012.31 1011.85 1011.46 1011.14 1010.86 1010.58 1010.27 1009.89 1009.44 1008.92 1008.35
1016.82 1016.69 1016.55 1016.40 1016.25 1016.10 1015.97 1015.88 1015.82 1015.79 1015.80 1015.82 1015.85 1015.85 1015.82 1015.76 1015.67 1015.57 1015.48 1015.41 1015.37 1015.36 1015.36 1015.34 1015.28 1015.14 1014.90 1014.55 1014.10 1013.59 1013.05 1012.51 1012.01 1011.59 1011.22 1010.91 1010.61 1010.29 1009.92 1009.46 1008.92 1008.31 1007.66
1017.07 1016.99 1016.88 1016.75 1016.62 1016.49 1016.37 1016.28 1016.22 1016.19 1016.18 1016.18 1016.17 1016.14 1016.06 1015.95 1015.81 1015.65 1015.50 1015.36 1015.25 1015.17 1015.09 1015.01 1014.89 1014.70 1014.43 1014.07 1013.64 1013.16 1012.66 1012.18 1011.74 1011.35 1011.01 1010.71 1010.39 1010.03 1009.60 1009.07 1008.45 1007.76 1007.03
1017.26 1017.22 1017.14 1017.04 1016.91 1016.78 1016.66 1016.55 1016.47 1016.42 1016.38 1016.35 1016.31 1016.23 1016.12 1015.96 1015.77 1015.57 1015.36 1015.16 1014.99 1014.84 1014.71 1014.57 1014.40 1014.18 1013.91 1013.57 1013.17 1012.74 1012.30 1011.89 1011.50 1011.17 1010.85 1010.55 1010.21 1009.81 1009.32 1008.73 1008.04 1007.28 1006.50
1017.35 1017.36 1017.31 1017.23 1017.11 1016.97 1016.83 1016.70 1016.60 1016.52 1016.45 1016.39 1016.31 1016.21 1016.06 1015.87 1015.65 1015.40 1015.15 1014.91 1014.68 1014.48 1014.30 1014.12 1013.93 1013.70 1013.43 1013.11 1012.76 1012.39 1012.01 1011.65 1011.32 1011.02 1010.72 1010.41 1010.05 1009.61 1009.07 1008.43 1007.69 1006.89 1006.07
1017.30 1017.36 1017.35 1017.28 1017.17 1017.03 1016.88 1016.73 1016.61 1016.51 1016.42 1016.34 1016.25 1016.12 1015.96 1015.76 1015.51 1015.24 1014.96 1014.69 1014.43 1014.19 1013.97 1013.76 1013.54 1013.31 1013.05 1012.76 1012.45 1012.12 1011.79 1011.48 1011.18 1010.89 1010.60 1010.27 1009.89 1009.41 1008.84 1008.17 1007.40 1006.59 1005.76
Thickness
5678 5680 5681 5682 5683 5683 5683 5682 5682 5681 5680 5679 5678 5676 5676 5675 5674 5673 5673 5673 5672 5672 5671 5671 5670 5669 5668 5667 5666 5665 5664 5663 5662 5661 5660 5659 5658 5657 5656 5655 5654 5653 5652
5671 5673 5674 5675 5676 5676 5676 5676 5675 5675 5674 5673 5673 5672 5671 5670 5669 5669 5668 5668 5667 5667 5666 5666 5665 5664 5663 5662 5661 5660 5659 5658 5657 5656 5655 5653 5652 5652 5651 5650 5649 5648 5648
5663 5665 5666 5668 5669 5669 5669 5668 5668 5667 5667 5667 5667 5666 5665 5665 5664 5663 5663 5662 5662 5661 5661 5660 5660 5659 5658 5657 5656 5655 5654 5653 5652 5651 5650 5648 5647 5646 5646 5645 5644 5643 5642
5654 5656 5659 5660 5662 5662 5662 5661 5661 5660 5660 5660 5660 5660 5659 5659 5659 5658 5657 5657 5656 5656 5655 5654 5654 5653 5652 5651 5650 5649 5648 5647 5646 5645 5644 5643 5642 5641 5640 5639 5639 5638 5637
5646 5648 5650 5652 5653 5653 5654 5654 5653 5653 5653 5653 5652 5653 5653 5652 5652 5652 5651 5651 5650 5650 5649 5648 5647 5646 5645 5644 5643 5642 5642 5640 5639 5639 5638 5637 5636 5635 5634 5634 5633 5632 5632
5637 5640 5642 5643 5643 5644 5645 5646 5646 5646 5646 5645 5644 5645 5645 5646 5646 5646 5645 5644 5643 5643 5642 5641 5640 5639 5638 5637 5636 5635 5635 5634 5633 5632 5631 5631 5630 5630 5629 5628 5627 5627 5626
5628 5631 5633 5634 5635 5636 5637 5638 5638 5638 5637 5636 5634 5635 5636 5638 5638 5638 5637 5637 5636 5635 5634 5633 5632 5631 5630 5629 5628 5627 5627 5626 5626 5625 5625 5625 5624 5624 5623 5623 5622 5621 5621
5619 5622 5624 5625 5627 5628 5628 5629 5629 5629 5628 5627 5627 5626 5626 5627 5630 5631 5630 5629 5628 5626 5626 5625 5624 5623 5622 5621 5620 5619 5619 5619 5619 5619 5618 5618 5618 5618 5618 5617 5616 5616 5615
5610 5612 5614 5616 5618 5619 5620 5619 5620 5620 5619 5618 5619 5618 5617 5619 5618 5620 5621 5620 5619 5618 5617 5616 5615 5614 5613 5612 5611 5611 5611 5611 5611 5611 5611 5611 5611 5611 5611 5611 5610 5609 5609
5600 5603 5605 5607 5608 5609 5610 5610 5611 5611 5611 5610 5609 5609 5610 5611 5608 5608 5609 5609 5609 5608 5607 5607 5606 5605 5604 5603 5602 5602 5602 5602 5602 5602 5603 5603 5603 5604 5604 5604 5604 5603 5602
5590 5593 5595 5597 5599 5599 5600 5600 5601 5601 5600 5600 5600 5599 5599 5599 5598 5597 5598 5599 5598 5598 5598 5597 5596 5596 5594 5593 5593 5593 5593 5594 5594 5593 5594 5594 5595 5596 5596 5596 5596 5596 5595
5580 5582 5585 5587 5589 5590 5590 5590 5590 5590 5589 5590 5589 5589 5589 5588 5588 5587 5587 5588 5587 5588 5587 5587 5587 5586 5585 5584 5584 5583 5583 5584 5584 5584 5585 5585 5586 5586 5586 5586 5586 5587 5587
5569 5571 5573 5575 5577 5578 5579 5580 5580 5579 5579 5579 5579 5578 5578 5578 5578 5577 5576 5575 5575 5576 5576 5577 5577 5576 5575 5574 5574 5574 5573 5573 5574 5575 5575 5576 5576 5577 5577 5576 5577 5577 5577
5559 5561 5563 5564 5566 5567 5568 5568 5568 5569 5568 5568 5568 5567 5566 5566 5566 5566 5565 5563 5563 5563 5565 5566 5566 5566 5565 5563 5563 5563 5563 5563 5563 5564 5565 5565 5566 5566 5567 5567 5567 5567 5567
5550 5551 5553 5554 5555 5556 5557 5557 5558 5558 5558 5557 5556 5556 5555 5555 5554 5555 5554 5553 5552 5552 5556 5556 5555 5555 5553 5553 5553 5552 5552 5552 5553 5554 5554 5555 5555 5556 5556 5557 5557 5557 5557
5541 5543 5544 5544 5545 5546 5547 5547 5548 5548 5547 5547 5546 5546 5545 5544 5544 5543 5543 5542 5541 5541 5544 5546 5544 5543 5542 5542 5542 5541 5541 5541 5542 5542 5543 5544 5544 5545 5546 5547 5547 5547 5547
5533 5534 5535 5536 5536 5537 5538 5538 5538 5538 5538 5538 5538 5537 5536 5534 5533 5533 5532 5531 5530 5529 5531 5535 5532 5532 5530 5531 5531 5530 5531 5531 5531 5531 5532 5533 5533 5534 5535 5536 5537 5537 5538
5525 5527 5528 5528 5528 5528 5529 5529 5530 5530 5530 5529 5528 5528 5527 5525 5524 5523 5523 5522 5520 5520 5520 5522 5522 5520 5520 5520 5520 5519 5520 5520 5520 5521 5521 5522 5522 5523 5524 5525 5526 5526 5527
5518 5519 5520 5521 5521 5521 5521 5522 5522 5522 5522 5521 5521 5520 5518 5517 5515 5514 5513 5513 5512 5511 5510 5510 5512 5510 5509 5508 5508 5508 5508 5508 5508 5509 5510 5510 5511 5511 5512 5513 5514 5515 5515
5512 5512 5513 5514 5514 5514 5514 5514 5514 5514 5514 5513 5513 5512 5510 5508 5507 5506 5505 5504 5502 5501 5500 5499 5500 5499 5497 5496 5495 5496 5497 5497 5497 5498 5498 5499 5499 5499 5500 5501 5502 5503 5504
5506 5506 5507 5507 5507 5507 5507 5507 5507 5506 5505 5505 5504 5503 5501 5500 5499 5498 5497 5495 5493 5492 5490 5490 5490 5489 5487 5484 5484 5483 5484 5485 5486 5486 5487 5487 5487 5488 5488 5489 5490 5492 5493
5499 5499 5500 5500 5500 5501 5501 5501 5499 5498 5497 5496 5494 5493 5492 5491 5490 5489 5488 5487 5485 5482 5481 5479 5479 5477 5476 5473 5472 5470 5470 5471 5474 5475 5473 5475 5474 5476 5477 5478 5479 5480 5482
5492 5493 5493 5493 5493 5494 5495 5494 5493 5490 5488 5486 5485 5483 5483 5482 5481 5479 5478 5477 5475 5473 5471 5468 5466 5464 5462 5461 5459 5459 5457 5457 5459 5461 5460 5464 5464 5464 5466 5467 5468 5469 5471
5487 5487 5487 5488 5487 5488 5488 5487 5485 5483 5480 5478 5476 5474 5473 5472 5471 5470 5469 5466 5463 5461 5459 5457 5454 5452 5450 5449 5447 5446 5446 5445 5447 5447 5446 5449 5452 5453 5455 5456 5457 5457 5459
5483 5482 5482 5482 5481 5481 5481 5480 5478 5475 5472 5469 5467 5466 5464 5463 5463 5462 5459 5456 5453 5450 5447 5445 5442 5440 5438 5437 5435 5433 5432 5432 5435 5436 5433 5434 5438 5439 5443 5446 5446 5446 5447
5479 5478 5477 5476 5475 5474 5474 5473 5472 5468 5464 5461 5459 5457 5456 5455 5453 5451 5448 5445 5442 5439 5436 5433 5430 5427 5425 5424 5422 5419 5417 5417 5418 5422 5422 5420 5422 5423 5430 5435 5434 5434 5435